This is the latest recevied weather packets stored in our database for station/object KC3WWU. If no packets are shown the sender has not sent any weather packets the latest 10 day(s).
| Time | Temp. | Humidity | Pressure | Rain* | Wind** | Luminosity | Snow |
|---|---|---|---|---|---|---|---|
| 1778203303 | 8.89° C | 59% | 1009.1 hPa | 0 mm | - | 0 W/m² | - |
| 1778203002 | 9.44° C | 58% | 1008.9 hPa | 0 mm | - | 0 W/m² | - |
| 1778202699 | 9.44° C | 56% | 1008.8 hPa | 0 mm | - | 0 W/m² | - |
| 1778202395 | 9.44° C | 56% | 1008.6 hPa | 0 mm | - | 0 W/m² | - |
| 1778202093 | 9.44° C | 55% | 1008.6 hPa | 0 mm | - | 0 W/m² | - |
| 1778201790 | 9.44° C | 56% | 1008.5 hPa | 0 mm | - | 0 W/m² | - |
| 1778201486 | 10° C | 54% | 1008.4 hPa | 0 mm | - | 0 W/m² | - |
| 1778201182 | 10° C | 56% | 1008.4 hPa | 0 mm | - | 0 W/m² | - |
| 1778200879 | 10° C | 55% | 1008.2 hPa | 0 mm | - | 0 W/m² | - |
| 1778200575 | 10° C | 53% | 1008.4 hPa | 0 mm | - | 0 W/m² | - |
| 1778200273 | 10° C | 54% | 1008.1 hPa | 0 mm | - | 0 W/m² | - |
| 1778199969 | 10° C | 54% | 1008 hPa | 0 mm | - | 1 W/m² | - |
| 1778199667 | 10.56° C | 53% | 1008 hPa | 0 mm | - | 2 W/m² | - |
| 1778199362 | 10.56° C | 53% | 1008 hPa | 0 mm | - | 3 W/m² | - |
| 1778199059 | 10.56° C | 54% | 1007.9 hPa | 0 mm | - | 4 W/m² | - |
| 1778198755 | 10.56° C | 52% | 1007.9 hPa | 0 mm | - | 7 W/m² | - |
| 1778198452 | 10.56° C | 55% | 1007.9 hPa | 0 mm | - | 8 W/m² | - |
| 1778198149 | 11.11° C | 51% | 1007.8 hPa | 0 mm | - | 10 W/m² | - |
| 1778197847 | 11.11° C | 54% | 1007.8 hPa | 0 mm | - | 14 W/m² | - |
| 1778197542 | 11.11° C | 54% | 1007.5 hPa | 0 mm | - | 18 W/m² | - |
| 1778197239 | 11.11° C | 52% | 1007.8 hPa | 0 mm | - | 18 W/m² | - |
| 1778196936 | 11.67° C | 51% | 1007.6 hPa | 0 mm | - | 20 W/m² | - |
| 1778196635 | 11.67° C | 49% | 1007.6 hPa | 0 mm | - | 21 W/m² | - |
| 1778196331 | 11.67° C | 51% | 1007.4 hPa | 0 mm | - | 35 W/m² | - |
| 1778196028 | 11.67° C | 48% | 1007.5 hPa | 0 mm | - | 33 W/m² | - |
* Rain latest hour (hover to see other rain measurements)
** Current wind speed in m/s (hover to see current wind gust speed)